This is the latest recevied weather packets stored in our database for station/object SV9TNF-55. If no packets are shown the sender has not sent any weather packets the latest 10 day(s).
| Time | Temp. | Humidity | Pressure | Rain* | Wind** | Luminosity | Snow |
|---|---|---|---|---|---|---|---|
| 1788322653 | 18.33° C | 37% | 1014.6 hPa | 0 mm | 0.45 m/s, 292° | - | - |
| 1788322054 | 18.33° C | 37% | 1014.6 hPa | 0 mm | 0.45 m/s, 292° | - | - |
| 1788321454 | 18.33° C | 37% | 1014.6 hPa | 0 mm | 0.45 m/s, 292° | - | - |
| 1788320853 | 18.33° C | 37% | 1014.6 hPa | 0 mm | 0.45 m/s, 292° | - | - |
| 1788320254 | 17.22° C | 39% | 1014.7 hPa | 0 mm | 0 m/s | - | - |
| 1788319653 | 17.22° C | 39% | 1014.7 hPa | 0 mm | 0 m/s | - | - |
| 1788319054 | 17.78° C | 37% | 1014.7 hPa | 0 mm | 0.45 m/s, 292° | - | - |
| 1788318453 | 17.78° C | 36% | 1014.7 hPa | 0 mm | 0 m/s | - | - |
| 1788317852 | 17.78° C | 37% | 1014.7 hPa | 0 mm | 0.45 m/s, 292° | - | - |
| 1788317253 | 17.78° C | 37% | 1014.7 hPa | 0 mm | 0.45 m/s, 180° | - | - |
| 1788316653 | 17.78° C | 36% | 1014.8 hPa | 0 mm | 0.45 m/s, 270° | - | - |
| 1788316052 | 17.78° C | 36% | 1014.8 hPa | 0 mm | 0.45 m/s, 270° | - | - |
| 1788315452 | 17.78° C | 36% | 1014.8 hPa | 0 mm | 0.45 m/s, 270° | - | - |
| 1788314852 | 17.78° C | 36% | 1014.8 hPa | 0 mm | 0.45 m/s, 270° | - | - |
| 1788314252 | 18.33° C | 35% | 1014.7 hPa | 0 mm | 0.45 m/s, 292° | - | - |
| 1788313653 | 18.33° C | 34% | 1014.8 hPa | 0 mm | 0 m/s | - | - |
| 1788313053 | 18.89° C | 32% | 1014.8 hPa | 0 mm | 0.45 m/s, 292° | - | - |
| 1788312452 | 20.56° C | 28% | 1014.8 hPa | 0 mm | 0.45 m/s, 270° | - | - |
| 1788311852 | 21.11° C | 27% | 1014.7 hPa | 0 mm | 0.89 m/s, 315° | - | - |
| 1788311252 | 21.11° C | 27% | 1014.7 hPa | 0 mm | 0.89 m/s, 315° | - | - |
| 1788310652 | 21.11° C | 27% | 1014.7 hPa | 0 mm | 0.89 m/s, 315° | - | - |
| 1788310052 | 21.11° C | 27% | 1014.7 hPa | 0 mm | 0.89 m/s, 315° | - | - |
| 1788309451 | 21.11° C | 27% | 1014.7 hPa | 0 mm | 0.89 m/s, 315° | - | - |
| 1788308851 | 19.44° C | 35% | 1014.7 hPa | 0 mm | 0.89 m/s, 292° | - | - |
| 1788308251 | 19.44° C | 35% | 1014.7 hPa | 0 mm | 0.89 m/s, 292° | - | - |
* Rain latest hour (hover to see other rain measurements)
** Current wind speed in m/s (hover to see current wind gust speed)